EUTELSAT 36B

Last updated on Tue Oct 08 2024 00:02:38 GMT+0000 (Coordinated Universal Time)

1 36101U 09065A 24281.26416388 .00000166 00000+0 00000+0 0 9997 2 36101 0.0728 348.4799 0005114 209.3073 309.6075 1.00272180 54616
UTC large
Height (km)
Speed (km/s)
/
Latitude / Longitude
Inclination (degrees)
Orbital Period (minutes)
Azimuth
Elevation
Range (km)
Doppler Factor

Next 0 passes for location: London (51.5072 / 0.1276)

Sorry there are no passes over London.